Vorticity
nan nan nan nan nan nan nan nan nan nan nan nan nan nan nan nan nan nan nan nan nan nan nan nan nan nan nan nan nan nan nan nan nan nan nan nan nan nan nan nan nan nan nan
nan 9 8 7 7 7 8 7 7 7 7 6 8 7 7 6 6 6 8 9 7 7 7 6 5 5 5 5 5 5 6 4 4 7 8 5 5 5 4 4 5 5 nan
nan 8 7 8 8 9 7 8 6 7 7 7 7 6 7 7 7 6 5 8 8 7 7 7 6 5 4 4 5 5 6 6 6 7 4 4 5 4 3 5 5 5 nan
nan 7 6 7 8 8 7 7 7 6 7 7 7 7 7 8 8 6 5 6 7 7 8 10 7 6 5 5 6 6 5 6 7 6 4 4 5 5 6 5 4 4 nan
nan 6 7 10 6 6 8 7 8 6 7 8 7 7 7 8 8 8 8 7 6 6 8 9 7 8 8 6 6 6 7 7 6 4 5 5 5 6 5 4 4 4 nan
nan 5 8 10 7 6 7 8 8 7 7 8 8 8 7 7 7 9 8 8 7 6 8 7 7 7 10 8 6 5 6 7 6 6 5 5 5 5 4 4 4 4 nan
nan 6 8 7 7 8 7 7 8 7 7 8 8 7 8 8 7 7 7 9 9 8 6 4 5 7 10 11 10 6 5 6 6 4 4 4 4 4 4 4 3 3 nan
nan 6 7 6 7 7 8 6 6 4 7 8 6 7 8 8 10 9 7 8 7 8 8 7 5 5 6 10 13 10 7 7 5 5 5 3 4 4 4 4 4 3 nan
nan 8 8 7 7 6 8 8 7 5 3 7 5 3 6 9 13 13 9 8 8 6 8 9 8 7 5 7 11 10 9 9 10 7 5 5 7 5 4 3 4 4 nan
nan 11 10 9 6 7 9 7 5 6 6 6 8 5 1 9 10 8 12 12 9 8 7 9 10 10 8 9 6 11 13 7 8 8 7 9 10 7 5 5 5 4 nan
nan 8 9 9 7 7 8 8 7 5 4 6 6 9 8 5 4 4 12 15 11 10 10 10 8 10 10 9 10 12 9 10 9 10 9 7 4 7 10 9 7 5 nan
nan 7 6 6 8 8 6 7 7 7 5 5 6 7 9 8 9 7 7 6 10 12 12 11 11 7 11 11 11 12 10 8 8 10 11 11 10 10 8 7 6 7 nan
nan 9 7 5 5 8 6 8 9 9 8 8 5 4 7 7 11 10 8 8 9 9 11 8 10 10 9 8 12 12 9 10 9 10 11 11 12 13 13 11 9 8 nan
nan 8 7 4 5 6 7 6 8 8 9 9 9 6 7 10 10 7 7 6 7 11 7 9 11 10 9 9 13 8 8 13 9 9 9 10 10 10 10 10 10 10 nan
nan 7 7 7 6 5 6 6 7 8 7 7 10 8 8 10 7 7 8 8 6 8 8 10 10 10 7 9 12 9 9 11 8 8 8 9 8 7 7 8 9 10 nan
nan 7 6 7 7 7 7 7 6 7 6 7 10 10 7 7 9 10 10 9 9 9 9 10 11 12 10 8 12 11 8 8 11 7 8 8 8 9 9 9 9 9 nan
nan 7 7 7 8 7 7 7 7 9 8 7 8 11 8 8 8 9 10 9 11 11 9 5 12 15 12 11 12 11 9 7 11 12 9 9 8 9 9 9 10 10 nan
nan 9 9 9 9 8 8 7 10 10 10 8 10 10 9 11 11 8 7 9 10 9 9 9 5 15 14 11 17 13 10 9 11 17 11 7 8 8 8 8 8 10 nan
nan 10 9 9 9 9 9 9 9 8 7 9 9 11 10 9 11 11 9 9 9 10 9 10 12 11 11 11 11 11 11 12 10 11 10 9 9 8 8 8 8 8 nan
nan 9 9 9 9 10 11 10 10 8 6 11 13 12 12 13 13 10 11 10 10 13 14 10 9 9 9 9 11 14 9 9 9 6 6 6 10 12 11 10 10 10 nan
nan 10 10 9 9 11 12 12 12 15 16 14 14 16 16 15 19 21 21 22 16 14 14 13 9 11 10 11 10 9 10 10 13 12 8 8 10 12 15 12 8 11 nan
nan 10 11 12 17 14 14 20 14 15 18 17 15 13 14 16 19 21 19 20 24 20 12 10 11 10 10 10 11 8 9 9 11 10 10 9 10 9 9 10 11 10 nan
nan 16 15 16 15 11 19 27 24 16 15 16 17 13 11 11 11 7 4 6 9 14 17 15 12 12 11 9 9 8 7 7 7 11 9 7 9 8 9 13 13 10 nan
nan 18 15 16 11 9 19 20 17 14 11 12 13 13 10 9 12 13 8 6 5 5 11 14 13 12 12 11 10 9 10 9 9 9 10 10 9 10 10 12 14 15 nan
nan 11 11 10 11 9 12 16 12 8 8 8 9 10 12 7 10 14 11 8 9 9 7 7 7 8 8 8 11 13 13 10 10 11 11 12 10 12 12 11 15 17 nan
nan nan nan nan nan nan nan nan nan nan nan nan nan nan nan nan nan nan nan nan nan nan nan nan nan nan nan nan nan nan nan nan nan nan nan nan nan nan nan nan nan nan nan
CAPE
86 66 74 111 119 169 168 138 100 48 11 0 0 0 0 1 1 2 5 11 19 22 13 13 9 5 3 4 4 4 6 2 1 7 5 6 10 1 0 0 0 0 0
34 30 59 38 104 179 184 138 82 9 0 0 0 0 0 0 0 2 6 12 16 26 21 10 8 6 2 1 1 0 3 3 1 14 14 10 1 1 0 0 0 0 0
4 9 69 2 1 50 76 77 24 0 0 0 0 0 0 0 0 0 6 7 12 11 17 17 4 3 1 0 0 0 0 0 0 8 8 2 0 0 0 0 0 0 0
33 70 36 2 0 10 29 3 0 0 0 0 0 0 0 0 0 5 7 14 9 9 15 30 17 3 0 1 0 0 0 0 0 10 3 0 0 0 0 0 0 0 0
44 82 79 7 0 0 0 0 0 0 0 0 0 0 0 0 0 0 6 18 13 4 8 13 20 11 9 0 0 0 0 0 0 0 0 0 0 0 0 0 0 0 0
46 76 38 33 3 0 0 1 0 5 6 0 0 0 0 0 0 0 2 3 3 2 0 4 2 0 0 0 0 0 0 0 0 0 0 0 0 0 0 0 0 0 0
79 98 42 50 25 10 16 9 2 1 4 0 0 0 0 0 0 0 0 0 0 0 0 0 0 0 0 0 0 0 0 1 1 0 0 0 0 0 0 0 0 0 0
100 84 58 90 87 46 37 20 5 1 2 0 0 0 0 0 0 0 0 0 0 0 0 0 0 0 0 0 0 0 0 1 4 2 2 0 0 0 0 0 0 0 0
81 78 79 84 109 109 71 53 2 3 2 0 0 0 0 0 0 0 0 0 0 0 0 0 0 0 0 0 0 0 0 0 2 14 14 23 27 11 3 1 1 1 1
35 93 101 111 123 113 107 73 14 27 7 0 0 0 0 0 0 0 0 0 0 0 0 0 0 0 0 0 0 0 0 0 0 16 25 42 45 50 40 30 22 22 23
44 31 61 62 93 107 131 139 75 55 45 66 0 0 0 0 0 0 0 0 0 0 0 0 0 0 0 0 0 0 0 0 0 0 0 7 10 21 40 55 69 63 59
105 56 40 63 71 131 157 193 212 167 86 54 79 26 4 5 0 0 0 0 0 0 0 0 0 0 0 0 0 0 0 0 0 0 0 0 0 0 18 23 21 20 35
16 27 55 70 88 128 153 183 218 203 222 127 120 70 0 0 0 0 0 0 0 0 0 0 0 0 0 0 0 0 0 0 0 0 0 0 0 0 0 0 2 1 5
32 72 67 64 75 33 173 225 335 245 266 232 212 168 132 105 0 0 0 0 0 0 0 0 0 0 0 0 0 0 0 0 0 0 0 0 0 0 0 0 0 0 0
29 62 67 72 66 95 111 150 147 192 286 284 255 275 71 0 0 2 0 0 2 1 1 0 0 0 0 0 0 0 0 0 0 0 0 0 0 0 0 0 0 0 2
1 10 36 39 54 48 47 66 105 137 158 309 229 187 178 44 19 19 3 0 0 0 1 0 0 0 0 0 0 0 0 0 0 0 0 0 0 0 0 0 0 0 14
1 2 4 13 20 23 35 124 110 90 107 144 215 168 69 37 15 0 0 0 0 0 2 1 0 8 0 0 0 0 0 0 0 0 0 0 0 0 0 0 0 0 0
0 1 3 3 5 6 64 133 152 53 70 75 12 2 0 0 0 0 0 2 0 0 1 0 0 0 0 0 0 0 0 0 0 0 0 0 0 0 0 0 0 0 0
7 7 8 9 7 24 11 36 85 6 8 7 9 3 0 0 0 0 0 0 6 2 0 0 0 0 0 0 0 0 0 0 0 0 0 0 0 0 0 0 0 0 0
3 1 1 1 3 1 3 16 25 24 91 105 10 0 0 1 0 0 0 0 0 0 0 0 0 0 0 0 0 0 0 0 9 1 0 0 0 0 0 0 0 0 0
3 1 2 4 10 47 82 102 55 11 1 0 0 0 1 0 0 0 0 0 0 0 0 0 1 0 0 0 0 0 4 8 6 5 3 0 0 0 0 0 0 0 0
3 3 32 68 129 27 0 0 0 0 0 0 0 0 0 0 0 1 0 0 0 0 0 0 0 0 0 1 3 4 7 17 11 17 0 0 0 0 0 0 0 0 0
48 20 14 2 0 0 0 1 1 0 0 0 0 0 1 2 1 1 1 1 0 0 0 1 1 2 3 3 7 14 11 4 0 5 6 1 1 0 0 0 0 0 0
2 2 2 2 1 1 0 0 0 1 2 2 3 3 2 3 4 2 2 1 3 3 5 8 11 14 12 6 4 7 10 12 16 2 2 8 1 8 11 1 2 2 0
2 3 3 3 2 2 0 0 0 1 2 2 2 3 0 1 1 1 0 1 2 4 9 9 2 1 1 1 1 21 28 21 15 6 13 32 20 21 22 29 23 13 7
4 4 3 4 3 5 2 1 0 1 1 1 1 1 3 2 2 2 3 4 3 4 5 6 7 1 0 0 0 1 7 19 16 18 5 19 17 21 40 19 24 34 23